Location: Breux
(46.3269°N, 3.2993°E)
Time: 10:59:47
(UTC+00:00)

ATLAS 2AS CENTAUR R/B - Pass Details

Date: 09 April 2020
Orbit: 931 x 1280 km, 63.7° (Epoch: 31 May)

Event Time Altitude Azimuth Distance (km) Brightness Sun altitude
Rises 19:56:20 0° 318° (NW) 4,162 7.2 -15.2°
Reaches altitude 10° 19:59:18 10° 313° (NW) 3,151 6.4 -15.7°
Maximum altitude 20:06:23 46° 244° (WSW) 1,490 3.7 -16.7°
Drops below altitude 10° 20:12:54 10° 173° (S) 2,895 4.6 -17.6°
Enters shadow 20:12:56 10° 173° (S) 2,907 4.6 -17.7°
